Location: La Fredeussais
(48.1780°N, 1.3980°W)
Time: 18:13:44
(UTC+00:00)

CRYOSAT 2 - Pass Details

Date: 09 May 2021
Orbit: 714 x 725 km, 92.0° (Epoch: 21 June)

Event Time Altitude Azimuth Distance (km) Brightness Sun altitude
Exits shadow 20:56:05 13° 165° (SSE) 2,015 6.2 -12.3°
Maximum altitude 21:00:28 73° 83° (E) 763 4.4 -12.8°
Drops below altitude 10° 21:05:22 10° 359° (N) 2,226 7.6 -13.3°
Sets 21:07:40 0° 358° (N) 3,150 8.5 -13.6°
